Zurück zum Katalog

FENGYUN 1C DEB

AktivSSO
NORAD 31253·DEBRIS·🇨🇳 China

Gestartet May 10, 1999 von Taiyuan Satellite Launch Center

Loading…

Nächste Überflüge (nächste 24 Stunden)

TLE

AktuellSource: Space-Track

Epoche: Sep 13, 2026, 03:42 UTC

1 31253U 99025BMK 26256.15446492  .00000090  00000-0  59457-4 0  9998
2 31253  99.0452 325.6168 0289623  48.1534 314.3969 14.03897471728489

Verfolge FENGYUN 1C DEB in Echtzeit mit AllMySat

Download on the App Store